Theta_e
314 314 315 324 320 334 342 346 345 351 350 347 346 347 347 345 341 335 343 343 341 344 346 339 335 334 335 329 323 328 331 334 334 332 331 330 332 332 330 328 327 326 328 330 331 332 333 334 337
313 315 318 314 317 320 325 342 344 346 344 346 346 344 343 337 348 349 348 344 339 340 342 340 335 335 336 333 324 329 332 333 333 331 331 333 334 335 335 333 331 329 330 332 333 334 335 336 339
315 318 315 316 314 320 337 341 336 341 347 346 341 342 346 342 347 346 347 345 342 342 341 339 336 335 337 333 325 329 332 332 332 331 333 335 337 338 339 339 338 334 332 331 331 332 333 334 334
318 315 312 314 317 316 330 332 339 336 344 344 345 349 344 342 345 347 345 343 343 344 342 339 337 336 338 333 326 329 330 331 331 332 333 334 335 336 336 337 338 339 339 335 332 332 331 332 333
319 308 312 315 315 316 322 325 335 335 339 347 346 349 342 349 347 342 341 345 341 346 342 339 337 336 338 331 326 328 329 329 329 330 331 331 331 330 329 329 330 331 335 338 338 336 334 335 336
313 309 313 314 315 316 321 325 328 330 345 344 344 344 341 349 348 346 343 342 339 341 343 339 338 336 336 328 326 328 328 329 329 328 327 326 326 327 329 331 333 332 330 328 328 330 333 333 332
313 311 315 316 316 318 324 324 335 343 344 346 343 344 340 346 347 342 340 340 339 340 343 342 338 336 335 327 327 328 328 328 327 327 326 325 326 328 331 335 335 332 329 328 329 327 326 325 326
310 310 315 314 316 320 318 334 335 345 347 343 340 344 334 333 346 345 347 343 340 338 341 344 340 338 335 327 327 328 328 329 328 327 326 325 326 328 331 332 329 326 324 323 327 329 327 325 324
313 312 313 316 318 319 314 345 345 341 341 339 341 339 337 338 341 348 350 349 345 339 335 337 337 337 332 328 330 330 330 330 329 329 328 327 326 327 329 327 327 321 318 317 319 323 326 326 325
313 311 315 316 317 317 315 325 342 344 340 338 338 341 338 334 341 350 349 347 346 343 339 333 331 331 329 329 331 330 332 333 331 330 329 329 328 332 334 336 331 325 320 317 314 315 319 321 322
315 314 314 320 317 316 316 317 333 342 343 336 338 342 340 335 331 336 347 347 347 342 336 332 327 326 328 329 329 330 332 331 331 331 330 330 330 337 338 340 340 326 323 325 325 323 320 321 324
318 315 317 318 317 319 318 316 322 341 341 337 335 338 340 341 343 347 343 336 344 343 339 333 328 326 327 328 328 329 330 331 331 330 330 330 330 339 342 342 341 338 324 326 328 329 332 332 334
316 318 318 317 317 318 318 319 317 336 339 337 339 343 342 343 342 346 345 342 340 341 340 336 331 328 327 331 332 329 329 330 330 330 330 332 335 335 341 342 342 341 332 327 329 332 335 337 336
317 318 317 317 318 318 318 319 318 327 335 344 345 343 341 342 343 344 343 344 340 340 341 339 339 339 337 334 338 339 335 331 331 331 331 333 337 339 340 343 342 340 340 340 337 338 338 338 337
318 318 315 317 318 319 318 317 319 323 340 346 343 339 336 335 335 336 337 339 340 344 345 342 339 339 338 338 339 340 340 339 337 337 340 340 340 340 343 346 343 341 340 343 342 342 339 339 339
317 315 315 315 317 319 316 315 316 322 345 345 342 338 334 332 332 333 336 338 342 342 345 343 341 340 339 342 345 346 343 342 341 341 342 342 342 343 341 343 343 343 341 341 343 343 343 341 340
313 316 316 315 314 318 317 318 319 342 344 344 340 337 334 331 329 331 332 331 333 340 340 339 346 343 341 346 349 348 348 348 347 345 345 344 343 343 343 342 343 342 340 341 340 339 344 344 342
318 319 318 317 319 318 321 321 320 341 342 340 337 335 332 329 327 328 328 330 333 337 343 334 336 340 341 340 340 339 338 345 349 349 348 348 349 347 344 344 344 342 341 339 340 338 339 347 347
319 319 318 320 319 321 322 322 342 340 338 336 333 330 329 327 324 325 325 326 327 331 338 342 337 332 331 329 328 332 338 344 346 347 348 348 347 348 349 346 344 344 342 341 340 342 339 343 346
319 321 320 320 319 318 319 321 334 338 336 333 331 328 327 324 321 322 321 322 323 325 328 334 335 339 342 340 340 344 347 338 344 342 342 347 349 350 348 346 344 343 344 345 343 342 346 346 344
318 318 319 321 320 318 317 315 341 337 333 330 328 326 325 322 320 320 320 319 321 320 322 325 326 328 332 337 342 345 343 337 336 335 337 341 344 346 345 344 342 341 338 343 343 342 343 339 339
320 319 319 319 316 318 315 314 336 337 334 331 326 325 324 321 320 320 320 319 318 319 319 319 321 322 324 326 329 329 328 327 329 331 333 335 339 339 338 341 338 329 331 337 333 336 333 331 335
322 319 320 319 317 314 314 312 320 335 336 332 328 326 324 322 320 320 321 321 319 319 320 320 319 319 321 322 323 323 324 325 325 326 329 331 330 331 335 334 334 332 330 331 336 334 329 333 333
319 319 318 315 312 315 315 315 323 335 334 331 329 326 325 323 321 320 322 323 321 321 322 322 320 319 319 319 320 322 323 323 324 325 324 325 325 327 328 330 332 334 335 336 333 333 330 331 329
317 316 317 316 316 319 318 326 326 333 331 330 328 326 324 323 320 319 319 321 321 320 319 318 318 318 317 316 317 319 319 319 321 321 323 323 324 324 324 325 325 326 327 333 332 333 333 334 334
320 316 316 319 319 322 322 335 332 331 328 327 326 324 323 322 319 318 318 320 320 319 319 317 315 314 311 308 311 311 312 313 313 313 315 315 317 320 322 325 326 327 328 328 335 331 329 329 327
320 317 316 319 319 318 321 330 330 329 329 327 326 324 322 321 319 318 319 319 319 316 316 315 311 310 309 309 310 311 311 312 314 313 314 315 314 313 313 315 319 323 326 327 328 331 331 330 330
317 317 318 315 322 324 321 328 330 333 330 328 327 324 322 320 319 317 318 318 317 316 314 312 311 310 311 311 311 312 312 312 313 313 313 314 314 315 316 316 315 314 319 322 325 326 325 327 328
316 319 318 315 318 321 322 322 325 326 329 329 327 325 322 321 320 317 317 319 317 316 314 312 311 310 311 312 312 313 312 312 312 312 313 314 313 315 314 315 316 316 316 315 317 322 323 323 324
321 321 317 318 319 320 322 321 323 322 321 325 326 326 323 321 320 318 318 319 316 315 315 314 311 311 312 312 312 313 312 311 310 310 311 311 311 313 314 312 311 313 315 316 318 318 317 317 317
Wind_Speed
12 9 9 2 4 4 3 5 2 13 5 15 6 6 6 3 3 4 14 23 36 35 30 29 27 24 21 19 19 19 19 18 18 18 18 17 16 15 14 14 14 15 17 17 17 16 16 16 16
12 7 3 2 4 2 5 4 9 15 13 9 10 4 7 4 5 9 18 30 40 37 33 30 28 25 23 20 19 19 17 16 17 17 17 15 14 14 13 12 12 12 13 13 14 14 14 12 10
11 4 3 4 3 4 5 6 8 7 13 13 6 4 4 3 10 14 15 40 39 37 35 32 28 26 24 21 21 19 16 16 16 16 15 14 13 12 12 11 11 10 10 10 11 11 10 9 7
4 5 4 4 4 8 8 9 5 7 9 7 7 6 2 7 17 18 40 40 38 35 34 32 29 26 24 23 21 19 17 16 16 15 14 13 12 11 11 11 11 10 10 9 9 9 8 7 5
2 3 4 1 5 7 10 15 8 6 6 2 2 3 3 6 23 39 40 37 38 34 32 30 28 27 25 22 22 19 18 17 16 15 14 13 12 11 11 11 11 11 11 11 10 9 8 8 7
4 3 4 3 6 6 6 6 3 9 13 10 9 5 5 22 36 33 37 37 35 35 31 29 27 26 25 24 22 20 18 17 15 15 14 13 12 11 11 11 11 11 11 11 11 11 11 10 10
5 4 3 4 6 7 5 4 5 10 6 5 6 5 6 8 28 35 34 34 33 31 30 28 27 26 24 23 22 20 19 17 16 15 14 13 12 12 11 11 11 11 12 12 12 11 11 12 12
5 4 5 3 5 6 10 6 2 12 2 5 4 5 6 9 23 27 29 30 29 29 28 26 25 24 24 23 21 21 19 18 16 15 14 13 12 12 11 10 10 10 11 12 13 13 12 12 13
3 4 3 4 4 4 8 7 4 5 10 5 3 4 7 29 28 28 24 24 27 29 27 26 25 24 23 20 18 18 17 17 16 16 15 14 13 11 10 10 8 8 10 11 13 14 14 13 14
4 4 6 4 4 4 6 5 4 6 10 6 4 2 18 32 29 24 19 17 17 25 28 27 25 24 22 21 20 19 17 17 17 17 16 15 14 12 11 9 9 8 8 9 10 12 13 14 14
1 5 5 3 3 6 5 5 2 11 4 7 11 8 9 15 16 13 10 26 33 28 28 30 29 26 25 23 23 22 21 19 18 17 16 16 15 14 14 13 12 11 11 10 10 11 11 11 12
2 6 5 6 2 4 3 4 3 2 10 10 13 8 19 13 16 23 19 8 15 24 27 29 28 27 27 25 24 24 24 23 22 21 19 18 18 18 17 18 15 13 14 13 13 13 12 13 14
3 2 2 5 3 3 2 5 6 4 5 4 17 21 17 12 13 23 23 19 12 18 18 26 29 32 30 28 26 26 27 26 25 23 21 21 21 22 19 22 20 17 15 17 18 17 16 15 16
4 3 3 4 4 2 4 2 5 5 10 18 23 21 21 20 17 17 23 18 9 12 14 12 20 24 26 29 27 27 26 26 26 25 24 24 24 24 23 23 24 21 20 19 20 19 21 19 19
2 4 7 4 2 2 3 6 3 7 21 20 21 18 22 20 27 23 24 24 19 12 13 10 4 23 24 29 28 29 29 26 26 27 23 24 26 27 27 26 28 26 24 24 26 26 25 23 24
6 5 4 6 3 4 6 8 9 10 25 19 19 17 20 19 22 24 23 26 22 14 14 5 6 18 27 24 16 12 22 27 26 26 28 29 30 29 29 29 27 26 25 23 27 24 25 29 30
7 3 4 10 8 5 4 4 16 23 24 17 16 15 17 15 19 16 15 13 15 21 15 14 8 15 20 14 18 16 16 19 27 26 30 35 34 35 33 32 31 26 24 19 19 16 18 18 21
4 3 5 5 2 6 2 1 9 13 16 16 14 14 13 15 11 12 9 20 24 25 18 9 7 6 6 12 24 27 30 20 28 26 19 18 19 32 38 38 34 28 27 27 20 14 11 7 7
3 2 5 6 6 5 2 3 13 11 11 9 9 13 15 14 19 18 16 20 25 25 24 16 7 7 7 7 15 24 24 24 31 34 29 24 24 22 25 35 38 28 27 28 20 15 15 10 7
7 6 6 4 8 5 3 6 8 8 7 7 7 9 9 7 8 16 20 23 24 26 25 21 19 16 11 13 17 15 15 15 14 15 20 14 15 16 11 5 6 14 22 20 13 10 7 3 6
4 7 4 1 5 2 2 4 6 8 10 9 8 7 8 8 8 10 20 28 28 29 25 21 20 21 18 14 7 6 4 12 17 20 19 18 16 8 5 1 6 14 19 19 12 0 3 8 7
4 1 5 5 5 2 4 3 1 7 6 8 6 6 6 7 8 13 17 23 28 23 23 22 20 23 23 21 22 24 22 18 18 15 20 19 14 11 10 4 12 37 37 23 14 22 12 10 10
4 1 3 1 3 4 6 3 3 9 2 1 3 5 6 7 8 8 16 20 18 19 21 21 23 25 25 25 24 23 21 20 20 19 20 20 21 19 18 6 3 13 10 13 5 8 9 9 8
2 5 8 6 4 2 2 5 5 5 6 4 3 3 5 6 6 8 12 13 14 12 12 12 17 20 21 23 23 24 23 21 22 21 22 21 21 21 23 20 14 8 4 12 14 6 8 12 10
9 7 4 5 4 6 5 4 2 7 12 10 9 8 7 6 7 6 8 8 10 12 13 11 14 16 16 18 20 20 21 22 21 21 20 22 22 21 18 17 16 13 13 10 12 17 19 27 23
3 6 5 4 3 5 6 1 3 10 13 11 10 8 7 6 6 6 8 8 7 6 6 7 10 12 13 16 17 17 17 18 19 18 19 19 18 17 15 16 13 16 13 11 9 11 14 17 18
3 2 5 4 2 2 1 3 4 6 8 9 9 8 8 7 7 7 8 8 9 8 6 6 9 11 13 16 17 19 20 20 20 20 19 20 20 19 18 17 16 17 16 15 10 8 9 14 18
5 4 3 3 2 3 4 4 4 10 11 9 10 9 9 8 8 7 12 14 11 9 6 7 6 8 10 11 13 15 16 17 18 18 20 20 20 21 22 23 23 20 17 16 16 14 13 11 12
4 2 5 4 4 4 2 5 5 8 12 14 12 13 13 12 10 9 16 16 14 12 8 6 5 6 6 7 8 11 13 14 14 15 16 16 17 17 19 21 22 25 25 21 16 14 13 15 14
2 3 4 5 5 1 4 5 4 10 9 13 15 14 14 9 12 10 17 19 18 14 10 8 6 5 1 2 5 6 7 11 12 13 16 16 16 15 17 19 20 18 19 23 18 16 16 16 19
Wind_Direction
308 308 299 101 52 63 262 223 208 184 211 233 295 256 137 113 125 170 148 162 159 153 158 155 146 143 139 137 139 138 134 130 128 127 127 126 124 120 119 118 119 124 130 130 129 127 123 119 115
313 335 115 80 94 52 272 197 191 191 221 157 203 255 55 70 77 125 124 164 155 153 157 156 151 148 145 143 144 143 140 137 135 134 133 133 133 131 130 128 128 132 139 140 139 137 134 130 126
319 301 95 130 126 188 236 222 180 186 178 180 133 30 97 87 115 143 165 158 154 154 158 157 155 152 149 148 149 149 148 145 142 141 141 144 145 145 146 147 146 146 150 153 156 158 156 151 149
323 22 25 74 276 263 232 258 195 172 224 288 126 66 69 169 150 156 155 157 154 154 159 158 157 155 154 152 154 155 154 153 150 151 153 157 159 161 162 164 166 168 169 171 175 183 192 200 205
87 67 54 333 253 265 259 248 147 156 179 170 187 93 53 34 138 146 155 158 154 154 158 160 160 158 158 158 158 160 159 159 159 161 162 166 170 171 173 175 176 181 188 190 191 198 208 216 218
14 97 47 307 265 271 249 233 106 106 114 112 84 80 39 132 127 143 154 160 158 156 160 161 164 163 162 163 163 164 164 165 166 167 169 171 176 178 181 183 186 188 193 197 201 205 212 221 227
120 78 214 268 286 308 307 23 83 101 137 27 138 95 126 153 140 148 159 161 160 161 160 164 167 167 168 168 167 170 169 171 172 174 176 176 180 184 186 190 195 197 196 198 203 207 215 223 226
108 98 333 326 323 355 337 52 284 95 80 106 345 131 157 165 149 144 158 158 162 164 166 168 170 171 172 174 174 177 176 179 180 180 182 184 185 188 193 196 200 204 205 203 205 210 215 224 235
110 63 326 287 324 294 319 69 5 36 78 49 42 71 139 153 146 144 138 149 161 170 174 174 174 176 176 179 181 187 187 188 191 192 190 190 192 194 198 201 202 207 211 211 209 213 220 228 237
87 98 216 226 255 39 42 50 106 88 95 46 76 118 130 150 138 140 144 148 163 175 180 180 181 181 181 182 189 195 198 203 206 207 205 203 199 197 197 198 211 219 219 215 215 216 225 234 238
162 195 151 250 242 60 24 53 43 116 34 187 173 172 149 118 89 106 153 169 182 184 185 188 187 187 189 194 197 199 205 210 215 221 222 221 220 215 216 222 223 218 208 211 212 211 217 231 246
279 236 200 202 332 47 39 133 57 166 196 178 175 143 59 65 68 67 57 158 201 186 191 194 196 194 196 202 207 209 211 215 217 221 225 230 229 232 238 239 238 233 223 216 215 223 229 242 253
162 291 117 113 110 102 132 314 149 199 166 114 58 59 70 54 63 67 62 67 148 205 205 202 203 203 199 208 208 215 220 221 225 224 227 229 230 234 242 245 239 240 243 232 232 236 243 250 259
300 119 32 20 355 328 139 240 93 291 83 82 73 65 61 55 38 55 38 39 49 316 331 214 219 222 209 207 213 219 221 230 231 231 232 231 231 229 233 241 240 239 246 247 247 245 249 249 250
255 16 0 323 316 289 113 345 233 181 93 89 84 76 67 57 41 36 39 38 35 342 340 323 280 224 223 221 223 225 232 232 235 234 235 233 231 232 234 242 238 242 252 252 251 256 256 259 255
15 48 26 292 85 242 82 282 289 127 108 104 95 84 74 61 54 39 37 37 30 35 43 32 225 214 217 223 221 241 249 248 240 241 244 243 239 238 235 237 239 248 247 251 250 264 260 259 248
3 255 246 299 205 142 109 276 47 118 114 117 110 102 96 84 68 63 53 61 50 53 64 72 128 195 213 214 215 220 240 263 259 250 250 252 252 247 241 239 239 240 246 254 249 255 240 243 238
273 316 279 218 227 75 88 53 67 104 115 118 112 109 107 102 97 105 94 61 60 60 71 73 108 154 238 240 251 250 248 251 276 271 255 251 257 252 247 245 244 242 242 246 263 271 257 258 238
240 6 20 15 0 98 113 41 116 102 85 92 112 129 135 128 124 118 92 71 67 64 67 62 33 354 304 279 278 287 258 265 273 302 293 281 277 263 262 253 249 248 252 258 263 274 267 265 237
33 56 356 341 4 74 32 53 104 80 79 88 78 61 68 81 81 86 87 84 71 66 59 54 45 35 5 322 301 298 305 300 334 342 342 330 312 289 273 286 298 282 284 264 250 263 265 249 258
31 80 67 96 309 50 108 0 102 68 85 83 70 82 68 72 69 61 59 60 59 57 60 57 54 53 48 42 13 335 7 3 11 19 18 4 345 354 270 226 18 354 347 324 293 181 291 3 11
76 350 53 23 61 261 77 267 141 110 60 66 43 54 68 54 48 51 56 59 58 60 59 56 57 60 57 57 59 63 64 57 47 42 43 35 25 3 349 285 308 279 282 284 293 290 8 3 4
183 42 24 323 20 44 352 70 293 115 92 106 98 76 66 72 69 60 59 68 66 66 63 59 55 56 58 62 64 65 65 59 56 51 50 52 47 48 53 57 232 242 289 266 166 115 64 76 83
317 27 17 35 77 3 221 180 211 195 177 151 133 153 144 134 125 104 84 78 73 74 64 58 61 59 53 52 58 65 65 60 54 45 42 40 41 41 46 49 49 34 309 248 219 208 245 227 266
64 58 355 354 7 223 296 71 246 123 139 159 167 183 191 162 137 132 123 115 101 86 87 75 59 55 49 52 54 54 56 59 59 51 45 39 35 32 31 34 34 26 15 302 263 254 240 247 257
72 134 150 224 229 274 335 146 201 154 162 164 167 165 169 168 166 160 155 134 123 119 118 89 70 64 57 56 56 54 53 54 54 49 44 40 34 25 22 37 36 33 9 349 316 266 256 240 253
313 9 177 127 322 74 204 69 45 159 165 164 166 172 184 191 184 183 166 173 169 157 135 103 94 85 71 65 61 55 52 51 49 46 42 36 33 28 20 19 24 35 41 34 12 330 283 263 272
149 173 41 7 201 239 286 208 218 189 185 187 187 198 205 204 194 188 184 191 188 173 146 131 106 92 85 72 59 52 48 48 47 45 42 35 29 27 26 20 20 21 21 26 29 33 37 45 36
6 39 65 115 138 167 311 280 235 180 189 194 203 205 204 203 197 188 190 196 188 181 173 171 145 134 100 68 52 47 38 36 38 40 38 35 32 31 28 25 21 19 14 13 7 2 6 15 20
143 130 114 117 276 130 152 269 234 187 185 193 211 210 212 201 200 188 185 191 184 183 187 188 186 171 20 22 19 16 27 35 36 37 35 35 31 28 23 19 12 9 12 9 6 7 9 5 3